EW4171 Weather Reports


time (UTC)temp
C
wind
direction
speed
KPH
gust
KPH
rain 1hr
cm
rain 24hr
cm
rain mn
cm
humidity
%
barometer
mb
20260508060032 -1 172 0.0 1.6 0.00 0.05 0.05 74 1018.0
20260508054631 -1 172 0.0 1.6 0.00 0.05 0.05 76 1018.0
20260508053031 -1 172 0.0 3.2 0.00 0.05 0.05 75 1018.0
20260508051530 0 172 0.0 1.6 0.00 0.05 0.05 76 1018.0
20260508050031 0 142 0.0 0.0 0.00 0.05 0.05 73 1018.1
20260508044529 0 142 0.0 0.0 0.00 0.05 0.05 70 1018.0
20260508043029 1 142 0.0 1.6 0.00 0.05 0.05 64 1018.2
20260508041528 2 155 0.0 1.6 0.00 0.05 0.05 60 1018.3
20260508040028 3 256 0.0 4.8 0.00 0.05 0.05 57 1018.4
20260508034528 3 150 0.0 6.4 0.00 0.05 0.05 55 1018.5
20260508033027 3 143 0.0 4.8 0.00 0.05 0.05 52 1018.4
20260508031526 4 200 1.6 4.8 0.00 0.05 0.05 50 1018.2
20260508030026 4 165 1.6 6.4 0.00 0.05 0.05 49 1018.0
20260508024525 5 198 1.6 4.8 0.00 0.05 0.05 48 1017.8
20260508023027 5 198 1.6 6.4 0.00 0.05 0.05 48 1017.6
20260508021529 5 144 1.6 4.8 0.00 0.05 0.05 48 1017.3
20260508020023 6 224 0.0 4.8 0.00 0.05 0.05 49 1017.1
20260508014523 6 224 0.0 3.2 0.00 0.05 0.05 53 1017.0
20260508013034 6 224 1.6 6.4 0.00 0.05 0.05 53 1016.9
20260508011522 7 224 1.6 4.8 0.00 0.05 0.05 48 1016.9
20260508010120 8 224 1.6 6.4 0.00 0.05 0.05 42 1017.1
20260508004533 11 222 1.6 6.4 0.00 0.08 0.05 35 1017.2
20260508003021 13 217 0.0 9.7 0.00 0.08 0.05 27 1017.3
20260508001518 14 198 3.2 9.7 0.00 0.08 0.05 24 1017.6
20260508000012 14 8 0.0 16.1 0.00 0.10 0.05 25 1017.7
20260507234510 15 218 1.6 14.5 0.00 0.10 0.05 22 1017.9
20260507233008 14 211 6.4 11.3 0.00 0.10 0.05 23 1018.1
20260507231508 13 234 6.4 17.7 0.00 0.10 0.05 24 1018.4
20260507230005 14 64 8.0 20.9 0.00 0.10 0.05 23 1018.7
20260507224502 14 309 4.8 20.9 0.00 0.10 0.05 21 1018.9
20260507223101 13 17 3.2 20.9 0.00 0.10 0.05 22 1019.1
20260507221557 13 34 1.6 12.9 0.00 0.10 0.05 19 1019.4
20260507220055 13 25 6.4 14.5 0.00 0.10 0.05 17 1019.9
20260507214615 12 27 8.0 24.1 0.00 0.10 0.05 22 1020.0
20260507213103 13 182 4.8 14.5 0.00 0.10 0.05 21 1020.4
20260507211603 12 69 6.4 22.5 0.00 0.10 0.05 24 1020.7
20260507210052 12 179 4.8 17.7 0.00 0.15 0.05 24 1021.0
20260507204544 12 72 4.8 19.3 0.00 0.15 0.05 22 1021.2
20260507203051 12 27 12.9 25.7 0.00 0.15 0.05 23 1021.4
20260507201546 12 20 8.0 22.5 0.00 0.15 0.05 25 1021.6
20260507200042 12 10 9.7 19.3 0.00 0.25 0.05 22 1022.0
20260507194610 11 313 6.4 16.1 0.00 0.25 0.05 19 1022.4
20260507193039 11 24 3.2 38.6 0.00 0.25 0.05 20 1022.6
20260507191543 11 34 9.7 22.5 0.00 0.25 0.05 19 1022.7
20260507190037 11 30 1.6 24.1 0.00 0.36 0.05 21 1022.9
20260507184539 11 48 8.0 24.1 0.00 0.36 0.05 24 1023.1
20260507183037 10 33 8.0 24.1 0.00 0.36 0.05 25 1023.2
20260507181532 10 193 3.2 17.7 0.03 0.36 0.05 17 1023.6
20260507180032 10 282 8.0 19.3 0.05 0.56 0.05 29 1023.4
20260507174535 10 46 6.4 16.1 0.05 0.56 0.05 26 1023.5
20260507173033 8 41 3.2 11.3 0.05 0.56 0.05 27 1023.7
20260507171520 8 149 0.0 3.2 0.03 0.53 0.03 30 1023.9
20260507170019 7 352 1.6 6.4 0.00 0.56 0.00 41 1024.1
20260507164512 6 91 0.0 6.4 0.00 0.56 0.00 58 1024.3
20260507163008 4 99 0.0 6.4 0.00 0.56 0.00 56 1024.6
20260507161505 3 74 1.6 9.7 0.00 0.56 0.00 65 1024.7
20260507160001 2 117 0.0 0.0 0.00 0.56 0.00 73 1024.7
20260507154606 2 116 0.0 0.0 0.00 0.56 0.00 70 1024.9
20260507153053 1 116 0.0 0.0 0.00 0.56 0.00 73 1025.1
20260507151549 0 116 0.0 1.6 0.00 0.56 0.00 74 1025.6
20260507150046 0 116 0.0 1.6 0.00 0.56 0.00 80 1025.8
20260507144541 -2 116 0.0 1.6 0.00 0.56 0.00 86 1025.9
20260507143038 -3 116 0.0 0.0 0.00 0.56 0.00 92 1026.0
20260507141534 -6 116 0.0 0.0 0.00 0.56 0.00 95 1025.9
20260507140038 -7 116 0.0 0.0 0.00 0.56 0.00 94 1026.0
20260507134537 -8 116 0.0 0.0 0.00 0.56 0.00 93 1026.0
20260507133034 -8 116 0.0 0.0 0.00 0.56 0.00 93 1025.8
20260507131531 -9 116 0.0 0.0 0.00 0.56 0.00 92 1025.8
20260507130038 -9 116 0.0 0.0 0.00 0.56 0.00 92 1025.5
20260507124530 -10 116 0.0 0.0 0.00 0.56 0.00 91 1025.4
20260507123025 -9 116 0.0 0.0 0.00 0.56 0.00 91 1025.0
20260507121524 -10 116 0.0 1.6 0.00 0.56 0.00 91 1024.7
20260507120024 -9 116 0.0 1.6 0.00 0.56 0.00 91 1024.7
20260507114519 -9 116 0.0 0.0 0.00 0.56 0.00 92 1024.4
20260507113017 -9 116 0.0 0.0 0.00 0.56 0.00 92 1024.0
20260507111514 -8 116 0.0 1.6 0.00 0.56 0.00 91 1023.9
20260507110014 -8 116 0.0 0.0 0.00 0.56 0.00 92 1023.7
20260507104513 -8 116 0.0 0.0 0.00 0.56 0.00 92 1023.7
20260507103020 -8 117 0.0 0.0 0.00 0.56 0.00 92 1023.5
20260507101508 -8 231 0.0 0.0 0.00 0.56 0.00 92 1023.3
20260507100006 -8 158 0.0 0.0 0.00 0.56 0.00 92 1023.2
20260507094508 -8 158 0.0 0.0 0.00 0.56 0.00 92 1023.2
20260507093002 -8 158 0.0 0.0 0.00 0.56 0.00 92 1022.9
20260507091601 -7 158 0.0 0.0 0.00 0.56 0.00 92 1022.9
20260507090058 -7 158 0.0 0.0 0.00 0.56 0.00 92 1022.7
20260507084556 -7 158 0.0 0.0 0.00 0.56 0.00 92 1022.5
20260507083053 -7 158 0.0 0.0 0.00 0.56 0.00 93 1022.2
20260507081551 -7 158 0.0 0.0 0.00 0.56 0.00 93 1022.0
20260507080100 -7 158 0.0 0.0 0.00 0.56 0.00 93 1021.8
20260507074649 -6 158 0.0 0.0 0.00 0.56 0.00 93 1021.8
20260507073046 -6 158 0.0 0.0 0.00 0.56 0.00 93 1021.6
20260507071602 -6 158 0.0 0.0 0.00 0.56 0.00 94 1021.6
20260507070044 -6 158 0.0 0.0 0.00 0.56 0.00 94 1021.3
20260507064542 -6 158 0.0 0.0 0.00 0.56 0.00 92 1021.3
20260507063044 -5 158 0.0 0.0 0.00 0.56 0.00 93 1021.1
20260507061535 -5 158 0.0 0.0 0.00 0.56 0.00 93 1020.8